TimeCST,TemperatureF,Dew PointF,Humidity,Sea Level PressureIn,VisibilityMPH,Wind Direction,Wind SpeedMPH,Gust SpeedMPH,PrecipitationIn,Events,Conditions,WindDirDegrees,DateUTC
12:26 AM,55.4,51.8,88,30.20,10.0,North,4.6,-,N/A,,Overcast,10,2012-11-15 06:26:00
12:53 AM,55.9,51.1,84,30.21,10.0,ENE,5.8,-,N/A,,Overcast,60,2012-11-15 06:53:00
1:53 AM,55.9,51.1,84,30.20,10.0,NE,3.5,-,N/A,,Overcast,50,2012-11-15 07:53:00
2:53 AM,55.9,50.0,80,30.19,10.0,NNE,4.6,-,N/A,,Overcast,30,2012-11-15 08:53:00
3:53 AM,55.0,48.9,80,30.19,10.0,North,5.8,-,N/A,,Overcast,10,2012-11-15 09:53:00
4:53 AM,55.0,48.9,80,30.21,10.0,Variable,4.6,-,N/A,,Overcast,0,2012-11-15 10:53:00
5:53 AM,54.0,48.9,83,30.22,10.0,NNE,5.8,-,N/A,,Overcast,30,2012-11-15 11:53:00
6:53 AM,54.0,48.0,80,30.23,10.0,NE,9.2,-,N/A,,Overcast,40,2012-11-15 12:53:00
7:43 AM,55.4,46.4,72,30.23,10.0,NNE,8.1,-,N/A,,Overcast,20,2012-11-15 13:43:00
7:53 AM,55.0,46.9,74,30.25,10.0,NNE,4.6,-,N/A,,Overcast,20,2012-11-15 13:53:00
8:53 AM,55.0,48.0,77,30.25,10.0,NNE,9.2,16.1,N/A,,Overcast,30,2012-11-15 14:53:00
9:53 AM,55.0,48.0,77,30.26,10.0,North,8.1,-,N/A,,Overcast,360,2012-11-15 15:53:00
10:53 AM,57.9,48.0,70,30.24,10.0,Variable,4.6,-,N/A,,Overcast,0,2012-11-15 16:53:00
11:53 AM,60.1,46.9,62,30.23,10.0,NNW,5.8,-,N/A,,Overcast,330,2012-11-15 17:53:00
12:36 PM,62.6,46.4,55,30.20,10.0,North,9.2,-,N/A,,Scattered Clouds,10,2012-11-15 18:36:00
12:53 PM,63.0,46.0,54,30.20,10.0,North,10.4,-,N/A,,Partly Cloudy,10,2012-11-15 18:53:00
1:53 PM,64.0,46.0,52,30.20,10.0,North,5.8,-,N/A,,Clear,350,2012-11-15 19:53:00
2:53 PM,64.0,46.0,52,30.18,10.0,NNE,9.2,-,N/A,,Clear,20,2012-11-15 20:53:00
3:53 PM,61.0,46.9,60,30.19,10.0,NE,8.1,-,N/A,,Clear,50,2012-11-15 21:53:00
4:53 PM,55.9,46.0,69,30.21,10.0,NE,6.9,-,N/A,,Clear,40,2012-11-15 22:53:00
5:53 PM,53.1,45.0,74,30.23,10.0,NE,8.1,-,N/A,,Clear,40,2012-11-15 23:53:00
6:53 PM,52.0,45.0,77,30.24,10.0,NE,4.6,-,N/A,,Clear,40,2012-11-16 00:53:00
7:53 PM,51.1,44.1,77,30.25,10.0,Calm,Calm,-,N/A,,Clear,0,2012-11-16 01:53:00
8:53 PM,50.0,44.1,80,30.25,10.0,NE,3.5,-,N/A,,Clear,40,2012-11-16 02:53:00
9:53 PM,50.0,44.1,80,30.26,10.0,NNE,3.5,-,N/A,,Clear,30,2012-11-16 03:53:00
10:53 PM,50.0,44.1,80,30.25,10.0,NNE,3.5,-,N/A,,Clear,30,2012-11-16 04:53:00
11:53 PM,48.9,44.1,83,30.25,10.0,NE,3.5,-,N/A,,Clear,40,2012-11-16 05:53:00